When you browse on this site, cookies collect data to enhance your experience and personalize the content and advertising you see.
Visit our Privacy Policy to learn more. By continuing to use the site, you agree to this use of cookies and data.
  • In Romania
  • List of Countries
  • For 7 days
  • Water Temperature
  • Weather Map
  • Weather Widgets
  • user-avatar
    Login

    Hourly Weather Sydney

    Today, 21 October, Monday

    Time Temperature Precipitation Wind Pressure Humidity
    00:00 +14°C° 0 mm 1 mps 768 mmHg 66%
    01:00 +14°C° 0 mm 1 mps 768 mmHg 68%
    02:00 +13°C° 0 mm 1 mps 768 mmHg 69%
    03:00 +13°C° 0 mm 1 mps 768 mmHg 71%
    04:00 +13°C° 0 mm 1 mps 768 mmHg 72%
    05:00 +14°C° 0 mm 1 mps 768 mmHg 67%
    06:00 +15°C° 0 mm 2 mps 768 mmHg 63%
    07:00 +16°C° 0 mm 2 mps 769 mmHg 58%
    08:00 +19°C° 0 mm 2 mps 769 mmHg 51%
    09:00 +22°C° 0 mm 1 mps 769 mmHg 45%
    10:00 +26°C° 0 mm 1 mps 769 mmHg 36%
    11:00 +26°C° 0 mm 2 mps 768 mmHg 34%
    12:00 +27°C° 0 mm 3 mps 768 mmHg 31%
    13:00 +27°C° 0 mm 4 mps 767 mmHg 29%
    14:00 +26°C° 0 mm 4 mps 767 mmHg 34%
    15:00 +25°C° 0 mm 4 mps 767 mmHg 38%
    16:00 +23°C° 0 mm 4 mps 767 mmHg 43%
    17:00 +21°C° 0 mm 3 mps 767 mmHg 50%
    18:00 +19°C° 0 mm 3 mps 768 mmHg 56%
    19:00 +17°C° 0 mm 2 mps 768 mmHg 63%
    20:00 +17°C° 0 mm 2 mps 768 mmHg 67%
    21:00 +16°C° 0 mm 1 mps 769 mmHg 70%
    22:00 +16°C° 0 mm 1 mps 769 mmHg 73%
    23:00 +15°C° 0 mm 1 mps 769 mmHg 75%

    Tomorrow, 22 October, Tuesday

    Time Temperature Precipitation Wind Pressure Humidity
    00:00 +15°C° 0 mm 1 mps 768 mmHg 77%
    01:00 +14°C° 0 mm 1 mps 768 mmHg 79%
    02:00 +14°C° 0 mm 1 mps 768 mmHg 80%
    03:00 +13°C° 0 mm 2 mps 768 mmHg 81%
    04:00 +13°C° 0 mm 2 mps 768 mmHg 82%
    05:00 +14°C° 0 mm 2 mps 768 mmHg 76%
    06:00 +16°C° 0 mm 2 mps 768 mmHg 70%
    07:00 +17°C° 0 mm 2 mps 768 mmHg 63%
    08:00 +20°C° 0 mm 2 mps 768 mmHg 51%
    09:00 +24°C° 0 mm 3 mps 768 mmHg 39%
    10:00 +27°C° 0 mm 3 mps 768 mmHg 27%
    11:00 +28°C° 0 mm 4 mps 767 mmHg 27%
    12:00 +29°C° 0 mm 4 mps 766 mmHg 26%
    13:00 +30°C° 0 mm 5 mps 766 mmHg 25%
    14:00 +29°C° 0 mm 5 mps 766 mmHg 30%
    15:00 +27°C° 0 mm 6 mps 765 mmHg 35%
    16:00 +26°C° 0 mm 6 mps 765 mmHg 40%
    17:00 +23°C° 0 mm 5 mps 766 mmHg 51%
    18:00 +21°C° 0 mm 4 mps 766 mmHg 61%
    19:00 +19°C° 0 mm 3 mps 767 mmHg 72%
    20:00 +18°C° 0 mm 3 mps 767 mmHg 76%
    21:00 +18°C° 0 mm 3 mps 768 mmHg 81%
    22:00 +17°C° 0 mm 2 mps 768 mmHg 85%
    23:00 +17°C° 0 mm 2 mps 768 mmHg 86%

    Day after tomorrow, 23 October, Wednesday

    Time Temperature Precipitation Wind Pressure Humidity
    00:00 +17°C° 0 mm 2 mps 767 mmHg 87%
    01:00 +16°C° 0 mm 2 mps 767 mmHg 88%
    02:00 +16°C° 0 mm 2 mps 767 mmHg 88%
    03:00 +16°C° 0 mm 2 mps 767 mmHg 89%
    04:00 +15°C° 0 mm 2 mps 766 mmHg 90%
    05:00 +16°C° 0 mm 2 mps 767 mmHg 85%
    06:00 +17°C° 0 mm 2 mps 767 mmHg 81%
    07:00 +18°C° 0 mm 2 mps 767 mmHg 76%
    08:00 +21°C° 0 mm 3 mps 766 mmHg 64%
    09:00 +25°C° 0 mm 3 mps 766 mmHg 52%
    10:00 +27°C° 0 mm 4 mps 766 mmHg 40%
    11:00 +29°C° 0 mm 5 mps 765 mmHg 37%
    12:00 +30°C° 0 mm 5 mps 764 mmHg 33%
    13:00 +33°C° 0 mm 6 mps 763 mmHg 30%
    14:00 +32°C° 0 mm 6 mps 763 mmHg 33%
    15:00 +30°C° 0 mm 6 mps 762 mmHg 36%
    16:00 +29°C° 0 mm 6 mps 762 mmHg 39%
    17:00 +27°C° 0 mm 5 mps 762 mmHg 46%
    18:00 +25°C° 0 mm 4 mps 762 mmHg 52%
    19:00 +22°C° 0 mm 4 mps 763 mmHg 59%
    20:00 +22°C° 0 mm 3 mps 763 mmHg 60%
    21:00 +21°C° 0 mm 2 mps 763 mmHg 61%
    22:00 +21°C° 0 mm 2 mps 763 mmHg 62%
    23:00 +20°C° 0 mm 2 mps 763 mmHg 62%

    24 October, Thursday

    Time Temperature Precipitation Wind Pressure Humidity
    00:00 +19°C° 0 mm 2 mps 762 mmHg 63%
    01:00 +19°C° 0 mm 2 mps 762 mmHg 63%
    02:00 +18°C° 0 mm 2 mps 762 mmHg 63%
    03:00 +18°C° 0 mm 2 mps 762 mmHg 63%
    04:00 +18°C° 0 mm 2 mps 762 mmHg 64%
    05:00 +19°C° 0 mm 2 mps 762 mmHg 58%
    06:00 +21°C° 0 mm 1 mps 762 mmHg 53%
    07:00 +23°C° 0 mm 1 mps 763 mmHg 48%
    08:00 +25°C° 0 mm 1 mps 763 mmHg 41%
    09:00 +28°C° 0 mm 2 mps 762 mmHg 34%
    10:00 +31°C° 0 mm 2 mps 762 mmHg 27%
    11:00 +31°C° 0 mm 2 mps 762 mmHg 29%
    12:00 +31°C° 0 mm 3 mps 762 mmHg 30%
    13:00 +33°C° 0 mm 3 mps 761 mmHg 31%
    14:00 +31°C° 0 mm 3 mps 761 mmHg 33%
    15:00 +31°C° 0 mm 3 mps 760 mmHg 34%
    16:00 +30°C° 0 mm 3 mps 760 mmHg 35%
    17:00 +28°C° 0 mm 3 mps 760 mmHg 45%
    18:00 +25°C° 0 mm 3 mps 760 mmHg 55%
    19:00 +22°C° 0 mm 4 mps 761 mmHg 64%
    20:00 +21°C° 0 mm 3 mps 761 mmHg 66%
    21:00 +21°C° 0 mm 3 mps 761 mmHg 68%
    22:00 +20°C° 0 mm 3 mps 761 mmHg 70%
    23:00 +20°C° 0 mm 2 mps 760 mmHg 69%

    25 October, Friday

    Time Temperature Precipitation Wind Pressure Humidity
    00:00 +20°C° 0 mm 2 mps 760 mmHg 67%
    01:00 +19°C° 0 mm 2 mps 759 mmHg 65%
    02:00 +19°C° 0 mm 2 mps 759 mmHg 61%
    03:00 +19°C° 0 mm 2 mps 759 mmHg 58%
    04:00 +19°C° 0 mm 3 mps 759 mmHg 54%
    05:00 +20°C° 0 mm 3 mps 759 mmHg 48%
    06:00 +22°C° 0 mm 3 mps 759 mmHg 43%
    07:00 +23°C° 0 mm 4 mps 759 mmHg 37%
    08:00 +28°C° 0 mm 4 mps 758 mmHg 31%
    09:00 +32°C° 0 mm 4 mps 758 mmHg 25%
    10:00 +36°C° 0 mm 5 mps 758 mmHg 19%
    11:00 +36°C° 0 mm 5 mps 757 mmHg 17%
    12:00 +37°C° 0 mm 5 mps 757 mmHg 16%
    13:00 +39°C° 0 mm 6 mps 756 mmHg 15%
    14:00 +38°C° 0 mm 6 mps 755 mmHg 17%
    15:00 +36°C° 0 mm 6 mps 755 mmHg 19%
    16:00 +35°C° 0 mm 6 mps 754 mmHg 21%
    17:00 +33°C° 0 mm 6 mps 754 mmHg 23%
    18:00 +32°C° 0 mm 6 mps 754 mmHg 26%
    19:00 +29°C° 0 mm 6 mps 754 mmHg 29%
    20:00 +29°C° 0 mm 6 mps 754 mmHg 29%
    21:00 +28°C° 0 mm 6 mps 753 mmHg 29%
    22:00 +28°C° 0 mm 6 mps 753 mmHg 30%
    23:00 +27°C° 0 mm 6 mps 753 mmHg 29%

    26 October, Saturday

    Time Temperature Precipitation Wind Pressure Humidity
    00:00 +27°C° 0 mm 6 mps 752 mmHg 29%
    01:00 +27°C° 0 mm 6 mps 752 mmHg 29%
    02:00 +27°C° 0 mm 6 mps 751 mmHg 28%
    03:00 +27°C° 0 mm 7 mps 751 mmHg 28%
    04:00 +27°C° 0 mm 7 mps 751 mmHg 28%
    05:00 +27°C° 0 mm 7 mps 751 mmHg 27%
    06:00 +28°C° 0 mm 7 mps 751 mmHg 26%
    07:00 +28°C° 0 mm 7 mps 752 mmHg 25%
    08:00 +30°C° 0 mm 7 mps 752 mmHg 25%
    09:00 +32°C° 0 mm 6 mps 752 mmHg 25%
    10:00 +33°C° 0 mm 6 mps 752 mmHg 25%
    11:00 +33°C° 0 mm 5 mps 751 mmHg 23%
    12:00 +33°C° 0 mm 5 mps 751 mmHg 21%
    13:00 +33°C° 0 mm 5 mps 751 mmHg 19%
    14:00 +32°C° 0 mm 6 mps 752 mmHg 18%
    15:00 +30°C° 0 mm 6 mps 752 mmHg 17%
    16:00 +29°C° 0 mm 7 mps 752 mmHg 16%
    17:00 +26°C° 0 mm 7 mps 753 mmHg 19%
    18:00 +23°C° 0 mm 6 mps 754 mmHg 21%
    19:00 +21°C° 0 mm 6 mps 755 mmHg 24%
    20:00 +20°C° 0 mm 6 mps 756 mmHg 26%
    21:00 +19°C° 0 mm 6 mps 757 mmHg 29%
    22:00 +16°C° 0 mm 7 mps 758 mmHg 32%
    23:00 +16°C° 0 mm 6 mps 758 mmHg 35%

    27 October, Sunday

    Time Temperature Precipitation Wind Pressure Humidity
    00:00 +15°C° 0 mm 6 mps 758 mmHg 37%
    01:00 +14°C° 0 mm 6 mps 759 mmHg 40%
    02:00 +13°C° 0 mm 6 mps 759 mmHg 42%
    03:00 +13°C° 0 mm 6 mps 759 mmHg 44%
    04:00 +12°C° 0 mm 5 mps 760 mmHg 46%
    05:00 +13°C° 0 mm 5 mps 760 mmHg 43%
    06:00 +14°C° 0 mm 5 mps 761 mmHg 41%
    07:00 +15°C° 0 mm 5 mps 761 mmHg 38%
    08:00 +18°C° 0 mm 4 mps 761 mmHg 33%
    09:00 +20°C° 0 mm 4 mps 761 mmHg 27%
    10:00 +22°C° 0 mm 3 mps 761 mmHg 22%
    11:00 +22°C° 0 mm 4 mps 761 mmHg 24%
    12:00 +22°C° 0 mm 4 mps 761 mmHg 26%
    13:00 +22°C° 0 mm 5 mps 760 mmHg 29%
    14:00 +21°C° 0 mm 5 mps 760 mmHg 34%
    15:00 +20°C° 0 mm 6 mps 760 mmHg 39%
    16:00 +19°C° 0 mm 6 mps 760 mmHg 44%
    17:00 +17°C° 0 mm 5 mps 761 mmHg 49%
    18:00 +15°C° 0 mm 4 mps 762 mmHg 55%
    19:00 +14°C° 0 mm 3 mps 763 mmHg 61%
    20:00 +14°C° 0 mm 3 mps 764 mmHg 62%
    21:00 +14°C° 0 mm 2 mps 765 mmHg 63%
    22:00 +14°C° 0 mm 2 mps 765 mmHg 64%
    23:00 +14°C° 0 mm 2 mps 765 mmHg 64%
    Show more